GFSSE_925_thetae_159.txt.gz
Theta_e
353 353 348 341 333 330 328 328 329 330 333 334 334 333 333 334 333 333 333 331 326 324 325 327 328 327 328 327 325 325 326 326 325 327 332 336 338 338 336 332 330 327 328
351 357 348 342 334 329 327 327 327 325 328 329 330 331 333 333 332 329 326 325 325 326 327 328 329 329 330 329 332 337 333 330 331 329 326 328 334 335 330 327 326 327 327
352 355 349 342 334 330 327 327 324 323 325 328 329 331 331 329 330 330 324 327 330 330 330 331 333 336 335 334 338 340 342 343 343 344 344 337 329 329 328 327 326 327 327
348 352 350 342 334 330 328 326 324 324 324 326 328 328 330 332 332 329 324 329 333 334 335 337 338 337 336 338 339 340 341 342 341 340 343 346 346 332 328 328 329 331 333
349 349 349 342 335 331 329 327 324 326 327 327 328 329 331 331 328 326 324 326 333 335 338 339 338 336 337 336 337 338 339 339 339 339 339 340 341 344 331 330 334 332 330
353 349 349 342 335 331 330 328 324 326 328 332 332 333 334 330 325 324 324 325 329 335 337 340 340 339 338 337 337 337 337 337 337 337 337 339 343 343 340 332 336 331 330
355 351 349 341 336 333 331 329 326 325 329 336 335 335 335 332 329 324 324 325 326 330 333 335 339 339 340 339 338 338 338 338 337 337 336 336 339 342 343 333 335 333 331
352 356 349 341 337 334 332 331 328 324 327 332 335 335 333 330 328 328 326 327 327 328 330 332 333 336 338 337 336 335 332 331 331 331 331 331 331 335 341 338 338 334 333
353 355 349 342 338 335 333 333 331 325 325 330 331 333 332 329 327 328 328 328 328 328 329 331 331 330 331 331 329 328 327 327 329 329 327 326 326 330 339 342 340 337 334
354 353 349 343 340 337 333 334 334 330 325 327 331 333 332 329 330 328 327 326 326 326 326 326 327 328 327 326 325 326 326 326 327 330 331 329 328 329 331 336 342 340 335
351 352 351 346 343 340 334 334 335 333 328 327 331 331 333 331 332 332 330 329 328 327 327 327 326 325 325 325 325 325 325 324 324 330 333 334 335 335 337 334 334 342 336
349 350 351 349 347 342 336 335 336 336 333 329 329 331 333 332 333 332 332 333 328 326 326 325 323 324 324 323 323 323 322 323 334 336 336 335 335 334 338 335 333 339 335
348 349 350 351 350 345 340 337 338 340 339 335 329 330 334 333 333 332 331 333 333 336 338 337 335 327 324 323 331 334 335 336 338 340 339 336 338 337 338 338 335 334 333
350 350 349 351 353 347 343 340 340 342 342 339 333 329 332 332 332 332 339 340 342 343 342 341 341 337 332 334 336 338 339 339 339 340 341 344 345 344 341 343 341 334 333
344 345 351 352 349 346 344 342 342 342 341 339 334 329 328 329 329 329 338 342 343 343 343 343 342 341 339 339 339 338 338 338 337 338 343 343 342 343 344 344 345 343 337
342 343 339 342 344 344 343 341 340 339 336 334 330 327 325 325 326 326 337 341 345 345 344 343 341 341 339 339 338 339 339 338 338 338 339 343 344 344 344 347 347 348 347
339 340 343 339 336 335 333 332 333 331 330 328 326 325 329 330 332 328 333 339 345 346 342 341 343 344 343 341 339 338 337 338 340 344 346 345 344 343 342 342 343 335 345
339 339 339 340 341 338 338 336 329 329 331 332 338 338 338 342 342 341 338 340 348 345 345 346 345 343 342 339 339 339 338 338 340 341 341 340 343 338 332 336 333 331 342
341 342 341 341 342 341 340 340 338 334 340 342 341 342 343 343 343 343 343 348 349 348 348 348 346 345 342 340 340 339 339 340 339 338 337 338 339 339 331 332 333 334 340
343 344 343 343 344 346 347 344 340 340 343 349 349 347 350 348 347 345 347 347 349 350 348 348 346 344 343 341 340 340 339 336 335 334 333 334 334 336 332 332 335 338 340
345 346 345 344 345 345 345 343 347 347 350 353 353 351 350 350 350 349 349 351 349 348 348 346 345 343 343 340 340 340 339 338 335 336 334 335 336 337 333 335 337 337 338
344 345 345 345 344 345 346 343 348 350 349 351 350 350 350 351 351 351 350 348 348 347 345 344 345 343 342 339 336 333 331 335 336 338 338 337 337 337 338 336 336 336 337
341 341 342 333 334 340 334 336 343 348 349 349 348 349 349 348 348 347 347 346 344 340 341 342 341 340 338 338 338 335 336 339 337 337 335 336 335 333 332 330 332 327 333
342 342 340 334 334 332 342 337 346 348 347 347 347 346 345 345 345 344 343 341 339 335 332 331 330 334 336 329 335 333 334 334 336 336 334 331 329 325 321 323 319 328 325
335 333 332 333 330 330 340 342 347 347 347 344 342 343 337 335 331 331 330 330 327 324 323 321 320 320 321 321 321 320 326 323 321 320 325 319 316 316 319 310 319 318 318
333 333 330 335 331 335 345 347 347 346 344 340 335 331 326 325 324 323 323 321 318 317 315 313 313 313 313 313 314 314 314 315 316 315 313 313 313 315 312 317 315 315 316

GFSSE_925_thetae_162.txt.gz
Theta_e
353 350 342 334 332 330 330 335 337 337 337 337 337 335 332 334 334 334 333 335 336 328 328 331 326 325 324 326 326 325 325 329 331 333 334 336 336 336 334 331 328 328 328
351 349 341 334 330 328 329 331 335 337 337 338 336 332 333 332 332 331 330 328 324 325 326 327 327 327 327 327 328 327 328 328 327 327 327 330 333 333 333 327 328 328 327
350 349 341 333 329 327 328 328 331 334 335 334 332 332 331 330 327 327 325 325 326 327 328 329 329 330 331 337 340 341 342 343 343 344 344 341 332 329 329 328 328 329 328
350 348 341 333 328 327 326 325 326 328 329 329 331 332 332 331 327 324 327 328 329 330 332 334 336 336 337 339 340 340 341 342 340 340 341 342 344 343 330 329 330 331 334
352 348 343 334 329 327 325 323 323 325 327 329 331 330 329 331 329 324 329 332 334 335 337 339 339 338 337 338 338 339 339 338 338 338 338 338 340 341 343 330 332 333 334
351 349 344 335 330 328 325 323 323 324 327 328 329 331 332 332 328 324 327 332 335 338 339 340 340 339 338 338 337 337 338 338 338 337 337 336 338 342 342 340 333 335 335
351 350 346 336 331 329 326 323 325 326 326 328 329 332 331 326 325 325 324 328 332 336 335 338 340 340 340 339 339 339 338 337 335 334 334 333 333 334 341 343 339 335 335
346 350 348 337 331 330 328 324 324 327 330 331 332 335 334 331 328 326 325 326 328 329 330 332 335 336 338 338 336 334 331 329 328 329 330 329 328 328 330 338 342 336 336
348 354 350 339 333 331 330 327 323 326 331 335 336 337 335 331 330 329 327 327 328 329 330 331 331 330 330 330 328 326 326 326 327 327 327 329 330 330 328 331 335 340 339
350 353 353 341 335 331 331 330 326 325 328 334 336 335 333 330 328 328 328 328 329 328 328 327 326 325 325 325 325 324 324 324 324 325 329 335 335 335 335 336 336 332 339
352 352 353 346 339 333 332 332 330 326 327 331 333 333 333 330 330 330 329 328 327 326 325 324 324 325 325 324 324 324 323 322 322 333 336 336 336 335 336 334 337 335 333
350 351 349 350 342 337 336 334 333 331 327 327 329 330 333 330 331 332 332 332 330 326 328 330 330 327 324 323 322 328 332 333 336 337 339 340 341 342 343 341 340 339 335
348 348 350 349 346 343 338 336 336 335 333 329 327 329 331 331 331 331 330 329 332 336 340 339 339 339 335 331 332 335 337 338 337 338 338 339 342 343 342 344 344 344 342
347 348 348 348 347 345 340 337 337 338 338 335 332 328 330 332 331 332 330 337 339 342 342 342 341 341 341 338 337 338 338 337 338 337 337 339 340 338 341 342 345 346 346
346 347 348 348 347 345 343 339 338 339 341 340 337 332 328 330 330 331 329 338 342 343 343 343 342 341 340 339 339 338 338 338 337 337 337 337 338 340 343 343 343 345 343
347 346 345 346 346 345 343 341 340 341 341 341 339 335 329 328 328 329 327 336 341 343 345 344 342 340 341 341 341 339 338 338 336 337 338 339 343 344 343 341 335 336 342
344 347 350 347 347 345 344 343 341 340 339 337 335 332 329 328 329 328 327 331 338 340 346 343 342 343 344 342 341 339 338 338 338 338 339 339 341 341 341 340 332 333 333
342 342 343 345 346 345 344 342 339 335 333 333 333 330 329 329 334 335 338 335 337 347 346 346 347 346 345 342 340 339 339 339 339 338 338 337 335 336 334 335 331 333 333
339 340 342 342 343 343 340 338 337 335 332 333 337 338 341 341 340 341 343 344 345 348 348 348 347 345 343 342 341 341 341 340 339 337 336 334 335 334 335 335 333 336 337
337 337 339 339 340 339 339 340 340 339 336 339 343 348 346 344 343 342 343 343 347 349 348 348 346 345 342 341 341 342 341 341 339 336 336 338 337 336 336 336 336 335 335
338 337 339 340 340 340 342 345 345 346 344 342 348 350 349 348 348 347 345 346 349 347 346 346 343 343 342 340 339 338 339 337 337 337 336 334 336 333 331 328 328 323 328
341 340 340 341 342 343 343 344 344 346 348 347 345 347 347 347 347 347 348 348 345 343 342 340 341 339 339 338 337 335 337 336 335 334 334 333 330 326 320 316 314 322 326
342 342 342 341 342 344 344 343 338 337 345 339 344 343 343 345 346 345 344 343 341 340 338 336 336 336 337 333 337 335 339 340 333 332 329 325 324 313 312 313 311 321 319
340 340 339 338 341 342 341 337 339 339 335 340 336 335 337 339 338 337 336 335 333 331 330 328 327 327 327 323 329 322 328 325 326 327 322 319 315 310 311 309 314 314 315
339 339 336 334 332 334 338 338 340 341 340 339 335 337 331 328 328 329 327 325 323 320 318 317 316 316 315 315 314 314 316 316 315 315 319 314 310 308 307 313 311 311 310
340 337 333 332 332 333 337 343 343 343 337 334 327 323 322 322 321 319 318 318 315 313 312 311 310 310 310 311 312 311 310 312 312 311 311 309 308 307 309 309 309 308 307

GFSSE_925_thetae_165.txt.gz
Theta_e
357 355 340 336 337 341 345 346 344 332 329 330 330 330 329 333 334 335 338 340 340 335 336 331 326 324 324 325 327 327 328 333 338 340 339 337 337 338 337 335 328 337 327
356 354 337 334 336 338 343 342 338 334 335 334 333 331 332 334 335 336 337 339 333 329 331 327 326 325 325 325 326 328 329 329 330 330 330 332 332 331 331 332 329 337 329
356 353 336 332 333 336 338 337 336 337 337 337 334 331 332 333 334 333 331 326 326 328 328 328 328 327 332 338 337 340 343 343 343 344 344 347 343 336 330 329 330 330 332
355 351 345 331 330 332 333 336 337 337 338 335 332 331 331 331 329 327 325 327 329 330 330 332 334 334 337 340 340 341 342 340 339 339 345 344 345 344 343 331 330 331 335
354 351 341 329 329 328 329 332 335 337 335 332 332 332 332 328 326 326 329 331 332 335 339 340 339 338 339 339 339 339 339 338 338 341 343 342 341 342 341 343 336 335 335
354 349 333 329 328 327 326 327 330 331 330 331 333 332 333 331 326 329 333 334 335 338 341 340 340 339 338 338 337 337 338 338 338 343 343 340 337 335 340 341 343 336 335
353 350 337 329 328 326 324 323 325 327 328 330 331 333 334 332 326 326 332 335 337 339 340 341 341 340 340 339 339 339 338 335 339 340 338 338 336 329 330 332 341 343 339
354 352 344 330 329 326 324 323 323 325 328 330 332 333 330 326 325 325 325 329 332 335 334 334 337 337 338 338 337 335 331 329 334 337 337 335 332 329 327 327 330 336 341
355 353 348 336 330 327 325 324 325 327 328 330 333 334 332 329 327 326 326 326 328 328 328 329 329 329 329 329 328 326 325 325 332 334 334 334 336 335 334 335 335 336 334
354 353 349 347 343 341 329 325 326 328 333 334 335 335 332 329 328 329 328 327 326 325 325 325 325 326 325 325 325 325 324 324 332 330 333 337 338 338 338 339 338 338 339
353 353 350 347 346 345 343 332 327 329 333 335 336 334 332 339 337 335 331 327 326 326 325 325 324 325 325 325 323 322 325 335 334 335 338 339 339 340 343 344 343 342 342
352 353 350 348 347 345 343 343 342 342 341 343 341 339 341 334 336 337 334 331 330 326 327 332 335 337 339 338 335 333 336 338 339 339 339 337 338 341 342 341 342 344 343
351 351 350 349 348 345 345 346 344 343 342 341 336 333 334 335 335 339 337 336 333 335 341 343 343 343 342 341 340 338 338 339 339 339 339 337 338 339 337 338 341 342 344
351 351 351 349 347 341 344 343 345 343 341 339 335 328 331 335 331 331 337 335 336 343 343 343 344 342 341 340 340 339 340 340 340 341 340 337 336 337 340 343 343 342 343
349 351 351 349 347 342 339 344 344 345 343 342 336 332 334 338 334 335 332 332 339 342 344 345 345 344 344 343 343 343 342 341 342 341 341 340 339 342 343 341 337 336 335
348 349 349 349 348 346 346 340 337 339 342 340 342 339 334 332 332 336 332 329 332 340 340 346 346 344 344 345 345 343 343 341 341 340 341 344 342 339 338 339 336 333 334
348 348 349 348 349 347 348 344 339 341 343 346 341 337 336 332 329 328 328 327 327 333 340 347 346 347 348 346 344 343 342 342 342 343 344 344 341 339 335 335 335 333 334
347 346 346 346 348 349 347 345 345 344 345 342 336 334 332 330 329 334 336 338 338 341 347 349 350 348 346 345 344 342 342 342 343 343 344 342 340 340 339 337 336 336 336
346 346 345 346 344 345 345 344 342 341 337 338 333 335 335 335 337 336 337 341 341 345 349 349 348 347 344 343 342 342 343 343 343 342 340 340 340 339 339 337 335 332 327
342 343 345 344 345 345 344 342 340 339 340 342 346 347 348 345 343 342 342 342 342 344 348 346 345 346 343 341 340 340 341 341 340 340 339 338 336 334 329 329 322 323 327
342 343 343 341 342 343 345 346 347 347 348 346 346 345 344 342 342 344 342 342 341 342 345 343 341 342 342 339 340 338 339 339 340 337 337 334 328 323 320 318 315 320 324
342 343 343 343 341 343 342 345 350 348 345 343 340 339 334 337 331 333 333 331 336 342 341 340 339 341 340 339 339 339 340 338 339 331 333 327 320 314 314 316 318 320 320
342 342 342 342 343 343 343 341 344 345 342 338 334 331 332 333 332 332 335 333 339 338 333 334 333 336 338 334 336 333 336 336 329 327 326 318 316 313 313 314 315 315 315
341 340 341 343 342 343 343 342 338 339 341 337 336 335 333 335 334 334 337 333 329 327 327 323 321 322 327 323 325 319 324 323 321 319 315 316 311 311 312 313 313 313 312
340 340 338 340 340 340 339 341 338 339 337 336 333 335 334 336 328 329 328 321 319 316 314 312 312 312 315 316 316 315 316 317 316 315 316 312 311 312 311 311 312 312 311
340 337 336 337 338 336 340 344 337 337 337 332 328 332 333 326 319 317 314 313 312 310 309 309 309 310 314 314 313 312 312 312 311 311 312 313 312 312 311 311 311 310 310

GFSSE_925_thetae_168.txt.gz
Theta_e
359 357 344 339 339 342 345 349 347 343 322 325 330 330 329 330 334 336 338 339 338 338 336 330 324 325 325 326 326 328 331 332 334 336 336 335 333 333 333 333 330 341 332
358 355 340 338 339 344 347 349 346 329 325 328 331 331 333 333 333 339 341 341 336 335 333 327 326 325 325 325 325 326 329 330 332 333 335 340 339 331 330 331 329 340 330
358 352 345 337 340 345 346 346 340 326 329 331 332 332 336 336 337 339 341 338 330 330 328 327 327 326 327 327 332 340 342 343 344 343 344 349 348 346 339 331 331 330 331
356 350 345 337 338 344 346 344 334 332 333 334 333 335 336 336 336 335 332 327 327 329 330 330 330 334 340 342 342 342 342 340 340 339 348 345 345 345 343 343 335 333 333
354 347 346 336 335 339 342 340 335 337 337 336 334 334 334 334 332 327 327 328 331 333 336 339 339 339 340 340 340 340 339 339 339 343 345 345 343 342 340 341 345 343 341
351 347 345 333 333 335 338 337 337 338 338 334 334 333 331 329 327 328 332 335 336 341 343 341 340 338 339 339 338 338 339 338 337 343 343 342 342 340 332 332 339 342 340
350 348 343 331 330 332 335 337 337 337 335 333 333 333 332 327 328 334 336 338 340 342 342 342 341 341 340 340 339 339 337 335 337 337 338 338 337 335 327 327 327 331 339
350 348 345 335 329 329 330 331 333 332 331 332 332 332 333 330 327 330 335 337 338 338 338 337 338 338 337 336 336 334 330 327 330 333 336 335 335 334 333 333 333 332 333
351 348 345 342 337 326 326 327 327 329 330 332 333 333 329 327 327 327 327 327 328 330 330 329 330 330 330 328 327 325 324 325 332 332 333 335 337 337 337 336 336 336 336
352 349 345 343 340 338 337 327 327 328 329 331 334 334 332 330 329 327 327 328 327 327 327 327 327 326 326 325 324 324 324 324 335 332 330 336 338 339 340 341 343 342 342
353 350 346 343 342 339 338 338 332 331 333 335 338 335 332 338 337 333 337 330 325 326 326 325 325 327 332 333 334 332 327 335 335 334 335 337 338 337 340 343 341 341 343
353 351 348 345 344 342 340 341 340 343 342 343 342 341 339 340 340 339 336 329 329 328 328 337 339 340 343 341 339 338 338 337 338 337 337 338 338 337 338 338 339 341 342
351 351 349 348 346 345 343 340 340 339 341 342 343 343 342 339 340 338 338 337 338 339 342 344 345 344 344 345 343 342 341 341 339 339 339 340 339 337 339 342 343 342 340
352 352 351 350 348 345 346 345 343 343 342 341 341 343 342 340 341 340 337 337 342 344 347 346 344 345 346 345 344 343 342 341 340 340 340 341 340 341 342 342 342 340 337
352 352 352 351 349 347 348 346 346 345 344 343 344 343 340 338 340 339 338 337 337 345 346 346 347 348 348 346 345 346 345 345 344 343 341 342 343 343 337 337 341 338 339
353 353 352 351 350 350 347 347 348 347 347 347 346 345 344 340 341 338 337 335 335 340 343 346 350 350 350 350 347 346 345 344 343 344 344 343 344 341 339 335 337 338 339
352 353 353 352 351 351 350 349 347 348 347 348 346 347 344 343 342 341 340 340 340 343 346 351 351 350 350 348 347 346 344 343 343 343 345 344 343 343 341 340 337 338 337
352 352 352 351 351 351 352 350 348 348 348 346 343 342 343 342 342 344 346 346 344 347 348 349 347 350 349 347 346 345 344 345 345 346 345 344 343 341 341 337 334 331 327
351 351 350 349 350 350 352 350 350 350 344 342 342 344 345 344 344 345 345 346 347 346 342 343 346 347 347 346 344 343 343 343 343 344 343 343 340 337 333 326 324 318 323
350 349 348 348 349 351 350 348 344 342 340 346 351 351 352 350 350 349 346 341 333 334 334 332 336 342 345 344 343 341 340 343 342 341 338 338 331 323 317 318 319 320 324
350 348 348 348 350 349 346 340 340 341 348 349 348 348 347 346 343 342 341 333 332 331 333 332 338 343 343 342 340 339 338 341 343 330 335 331 324 316 316 318 320 319 320
348 348 348 348 348 346 345 345 350 350 350 347 345 341 341 340 343 340 342 334 333 334 334 336 340 341 341 339 338 333 335 332 338 325 326 323 320 315 316 317 318 318 317
347 347 347 347 347 345 349 352 350 348 346 346 344 341 341 337 333 335 335 336 338 340 338 333 332 333 334 330 330 326 330 329 323 322 320 318 317 317 317 317 317 317 315
346 346 346 346 347 347 348 349 349 349 348 344 342 338 335 334 335 335 332 331 328 328 327 325 323 322 322 321 319 318 320 320 323 319 317 316 317 317 317 317 316 315 315
347 346 346 346 347 347 347 347 348 346 345 344 341 335 330 328 326 325 324 323 321 320 316 315 317 319 318 317 316 316 317 318 317 317 320 319 316 317 316 317 316 315 314
344 344 345 347 348 349 350 349 347 345 343 336 334 331 327 323 321 320 318 317 316 316 317 317 317 317 317 317 316 315 315 316 316 317 319 318 317 316 317 316 315 314 312

GFSSE_925_thetae_171.txt.gz
Theta_e
357 357 350 345 341 341 347 350 345 343 322 325 331 332 329 332 335 338 339 340 340 339 335 327 331 329 327 326 326 330 331 333 334 334 334 335 334 330 330 330 329 345 340
357 356 345 341 339 343 345 350 346 334 322 328 331 330 330 336 337 337 339 340 339 338 332 326 325 325 326 326 326 328 331 335 340 342 344 344 345 344 339 331 330 340 338
359 356 349 339 339 344 347 349 346 324 324 330 332 332 333 336 341 341 341 340 336 335 328 327 327 327 327 329 336 342 343 343 342 341 344 349 351 347 345 342 335 332 331
358 355 351 340 341 345 348 348 342 324 328 331 332 336 339 339 339 340 341 334 332 331 333 333 332 336 340 342 342 342 342 340 340 339 346 348 343 345 343 341 342 341 334
355 351 352 339 344 345 348 346 330 327 331 333 333 337 338 338 336 335 331 334 336 336 338 339 336 337 340 340 340 340 340 339 338 340 348 344 345 343 340 333 340 347 348
352 349 348 339 344 346 346 343 329 332 335 334 335 335 335 334 331 329 333 337 339 341 341 339 338 337 338 338 338 338 338 338 337 340 339 342 341 341 339 334 327 329 339
349 349 348 338 340 344 344 338 335 337 338 335 334 333 330 328 330 332 334 337 340 342 341 340 340 340 340 340 339 339 338 336 334 336 335 337 337 337 334 331 330 328 328
349 350 348 338 337 338 340 337 338 339 336 334 334 333 330 327 332 334 336 337 339 340 338 337 337 337 336 334 332 331 330 327 332 332 333 335 335 335 335 335 335 335 335
350 346 344 344 343 337 338 339 339 338 334 334 332 333 331 328 327 328 330 332 332 331 331 330 330 330 329 327 325 324 324 325 328 332 334 333 336 337 338 339 339 339 342
350 347 343 342 342 342 344 337 336 334 333 332 333 330 327 326 326 326 326 326 327 327 326 325 325 324 324 324 323 325 328 324 330 337 334 335 336 337 337 338 342 342 340
350 347 343 341 339 337 339 341 334 333 332 332 334 332 329 340 338 333 340 340 325 325 325 324 329 336 338 340 340 338 338 340 337 337 337 338 338 338 337 337 338 339 343
350 347 344 342 340 338 337 339 339 340 339 341 342 337 340 340 341 342 338 328 328 334 330 341 343 344 344 346 341 342 343 340 339 339 339 338 339 339 338 339 342 342 341
351 347 345 344 342 340 340 337 339 341 342 344 345 342 342 339 339 336 340 342 342 339 343 344 344 345 345 344 343 342 341 341 340 340 340 340 341 340 341 340 344 347 342
351 347 346 347 345 343 342 340 340 338 341 342 342 343 344 340 341 340 337 338 339 342 344 344 343 345 347 345 344 344 345 345 344 343 343 342 341 342 343 340 335 341 340
352 350 348 349 349 347 344 343 342 342 342 342 344 343 341 338 340 339 339 336 336 339 343 345 345 346 346 345 345 347 345 346 346 344 344 343 344 344 341 340 337 339 341
354 352 350 351 350 349 348 347 347 346 346 345 345 346 344 339 341 338 338 336 335 340 345 347 352 352 351 348 348 350 348 345 346 345 344 345 345 343 341 340 338 339 336
355 354 353 352 352 352 350 350 350 348 347 346 346 348 343 343 342 340 340 339 343 348 350 353 352 351 349 348 348 348 345 343 344 345 346 345 344 342 340 332 327 327 329
356 355 355 353 353 353 352 351 349 347 346 346 345 345 343 343 346 349 349 350 350 351 351 351 350 350 347 347 346 345 344 344 343 343 344 343 341 337 335 322 320 318 325
355 355 354 353 353 353 353 351 348 350 347 343 341 342 344 346 347 350 349 350 351 349 347 344 343 343 343 345 344 343 342 342 343 341 339 340 332 324 319 320 320 322 324
355 355 354 353 353 353 352 352 348 349 342 341 345 348 351 350 350 352 352 352 349 344 342 343 343 345 345 345 343 341 342 341 344 334 335 335 327 320 318 320 322 321 321
354 354 352 351 352 354 352 350 345 340 340 347 351 354 353 352 352 352 348 345 342 341 343 343 343 344 343 341 340 337 334 343 338 323 331 328 322 319 320 320 320 321 320
353 352 350 350 352 352 349 342 338 339 349 349 351 350 348 346 346 345 346 344 343 343 342 341 340 340 339 336 332 330 330 328 325 322 321 320 321 320 320 320 319 319 319
352 351 350 350 351 349 342 349 352 352 349 350 349 348 343 342 342 342 341 340 340 341 338 333 331 329 327 326 324 322 323 323 322 320 319 320 320 320 320 320 319 319 318
350 350 349 349 349 347 350 352 353 351 350 349 345 340 338 339 338 337 335 333 331 330 328 325 324 322 322 320 319 319 322 323 324 322 320 320 319 320 320 319 319 317 316
349 348 349 348 348 349 351 350 351 349 349 347 342 339 335 332 330 328 327 326 325 324 323 323 323 322 320 319 319 318 318 319 320 321 322 320 317 318 319 318 317 316 315
348 348 348 348 349 349 349 351 351 349 345 343 340 336 333 329 326 325 323 322 322 321 322 321 321 321 321 320 320 318 319 319 320 320 320 320 318 317 317 319 316 316 316

GFSSE_925_thetae_174.txt.gz
Theta_e
357 355 354 349 343 344 351 343 342 327 323 329 330 331 329 332 337 338 339 340 339 336 329 330 334 325 325 325 327 328 331 332 334 338 340 339 339 335 336 335 330 345 343
357 356 351 346 342 342 350 344 344 323 324 329 328 331 331 335 339 339 339 339 338 334 327 325 324 324 325 325 327 329 335 342 343 342 342 344 347 344 342 342 338 337 335
358 355 348 342 341 342 349 346 343 323 326 329 328 330 336 335 339 339 339 338 336 332 327 325 325 326 327 330 337 342 343 343 341 340 340 343 349 351 345 342 340 341 336
358 353 346 340 341 343 349 347 339 323 328 330 331 333 336 338 340 340 340 334 331 329 327 328 329 335 338 339 341 341 342 341 339 339 340 347 349 348 343 340 334 334 342
356 354 345 340 343 346 349 347 331 325 330 331 334 337 337 337 338 339 332 329 329 330 334 334 334 336 339 340 339 338 337 337 336 335 339 341 345 345 342 340 335 332 340
354 357 341 343 347 346 348 345 326 329 332 332 336 337 337 335 334 328 329 330 332 337 338 337 337 337 337 338 338 338 338 338 337 337 337 335 338 339 339 335 331 330 328
352 355 344 343 349 347 347 339 327 331 333 334 335 335 332 330 327 329 331 333 337 340 340 339 340 340 339 339 338 336 334 331 328 329 333 332 335 337 335 334 334 335 334
355 352 350 345 348 347 345 332 332 335 336 335 332 330 327 327 330 332 334 336 338 339 338 335 333 331 330 328 327 325 324 323 323 324 330 332 335 335 335 336 338 339 339
352 350 352 350 347 346 342 335 337 339 336 333 331 330 326 328 332 334 335 335 335 333 330 328 327 325 324 323 323 323 326 330 327 323 329 335 336 336 337 336 336 339 341
349 347 348 350 349 346 340 338 339 338 334 333 331 331 329 327 326 325 325 325 325 325 324 323 323 324 329 334 337 335 337 338 338 337 337 338 336 337 337 336 336 336 339
346 345 344 344 346 346 348 340 338 335 333 332 332 328 326 327 326 327 335 341 326 324 323 326 338 341 342 343 345 344 340 341 343 341 340 339 338 339 340 339 338 338 342
347 343 342 340 340 341 343 339 336 337 333 335 334 329 338 341 343 341 341 327 327 335 332 341 344 344 345 346 343 343 343 342 342 342 342 341 340 341 340 341 340 338 344
348 344 342 340 338 338 339 340 341 336 339 342 343 333 343 342 341 339 338 336 340 338 343 343 345 345 347 345 344 343 344 346 346 345 346 344 342 342 342 342 338 336 340
349 345 344 340 340 339 335 340 340 341 342 345 346 341 346 340 340 340 341 343 338 342 344 344 344 344 346 344 345 347 345 347 346 345 344 344 343 343 342 341 340 340 341
349 346 345 342 344 341 336 341 340 342 342 343 345 343 344 337 341 339 338 338 336 335 342 345 347 352 350 349 349 350 348 347 346 345 347 345 343 341 341 339 333 333 333
349 347 347 344 345 343 338 343 341 342 342 344 344 344 344 340 340 339 340 336 336 337 344 347 354 352 348 350 348 348 347 346 342 346 347 344 342 339 336 322 323 323 325
350 350 350 349 350 344 350 345 346 343 346 345 346 346 344 341 341 339 337 339 338 346 351 353 352 351 348 347 347 345 344 343 346 344 343 342 337 334 323 320 319 323 327
352 352 352 351 351 349 350 349 348 346 346 347 348 348 344 340 344 336 347 347 351 350 351 350 345 345 345 345 345 345 344 345 343 339 341 337 332 322 319 319 319 325 324
354 352 354 352 354 352 351 351 350 347 348 347 344 345 343 342 346 350 351 351 350 350 345 344 344 344 344 345 345 342 340 342 338 334 335 328 324 320 319 320 320 321 321
355 355 354 354 353 352 351 351 352 345 347 343 341 344 345 347 348 351 351 349 349 345 345 343 344 344 343 343 343 338 332 340 327 330 327 323 320 320 320 320 320 320 321
356 355 353 355 353 354 353 353 350 346 343 342 346 352 352 352 350 349 348 346 343 343 344 343 342 344 341 332 335 331 338 333 320 324 321 321 320 321 321 320 320 319 320
356 354 354 355 355 355 353 352 347 344 343 349 350 350 349 348 347 346 345 344 342 344 339 336 333 333 332 323 324 327 329 327 319 322 322 321 320 320 321 320 320 317 317
355 354 354 354 352 355 353 348 344 346 348 351 349 346 344 344 342 341 339 339 338 335 331 326 326 322 326 321 320 322 325 326 325 320 321 321 318 320 320 320 318 317 316
354 353 353 353 355 352 349 347 352 351 351 350 345 342 340 338 337 335 333 331 328 327 325 324 322 322 321 321 320 320 319 324 323 324 321 320 317 318 319 319 317 317 317
352 352 353 353 354 350 347 353 353 352 348 345 339 336 334 331 329 327 326 325 324 324 323 322 319 321 321 321 319 320 320 322 320 323 323 320 318 318 317 317 317 318 316
352 351 352 353 351 350 353 353 352 349 346 343 339 336 331 328 326 325 323 321 322 322 321 321 320 322 321 321 321 320 321 321 321 321 320 320 319 317 317 318 317 317 316